User: anonymous   Login
Location: Corcelles
(46.1547°N, 4.7234°E)
Time: 23:47:41
(UTC+00:00)
Language:

Cosmos 1500 - Orbit

View from above orbital plane
View from above orbital plane
View from above satellite
View from above satellite

Ground track
Ground track

The orbit data is extracted from the following two-line orbital elements,

1 14372U 83099A   20273.53207302 +.00001193 +00000-0 +55585-4 0  9998
2 14372 082.5146 236.0069 0013650 224.5887 251.7163 15.18858089019594
Epoch (UTC): 29 September 2020 12:46:11
Eccentricity: 0.0013650
inclination: 82.5146°
perigee height: 500 km
apogee height: 518 km
right ascension of ascending node: 236.0069°
argument of perigee: 224.5887°
revolutions per day: 15.18858089
mean anomaly at epoch: 251.7163°
orbit number at epoch: 1959

The dashed part of the orbit path shows where the satellite is in the earth's shadow,  

DLR